sat.trackr.live / text

‹ back to catalog

STARLINK-30854

NORAD 58244 · 2023-171Q

PAYLOAD ACTIVE UNKNOWN

§ Identity

Operator
Country
US
Launch date
2023-11-08
Launch site
AFETR
Launch vehicle
Mass (kg)
RCS (m²)

Purposes: comms

External: N2YO · Heavens-Above · Gunter

§ Orbital elements

Epoch: 2026-05-25T04:39:32.669568Z

Period
94.27 min
Inclination
43.0021°
Eccentricity
0.0002307
Mean motion
15.27591639 rev/d
Perigee alt
481.4 km
Apogee alt
484.6 km
Semi-major
6,861.2 km
B*
-6.3546e-5
RAAN
213.2777°
Arg perigee
265.5954°
Mean anomaly
94.4634°
Rev number
14,143

§ Raw data

STARLINK-308541 58244U 23171Q   26145.19412812 -.00002011  00000+0 -63546-4 0  99962 58244  43.0021 213.2777 0002307 265.5954  94.4634 15.27591639141433

JSON: /api/v1/satellites/58244 · /tle

For live sub-satellite position, see the globe view (requires WebGL).

§ Visibility from observer

Set your observer location to see the next 7 days of passes ≥ 10°. The values pass through the URL so the page stays shareable.

No JS? Fill the form by hand. The geolocation button needs JavaScript.